Location: Katowice
(50.2611°N, 19.0242°E)
Time: 02:48:11
(UTC+02:00)

A-11 Canister half - Pass Details

Date: 28 July 2019
Orbit: 1526 x 1683 km, 47.3° (Epoch: 21 August)

Event Time Altitude Azimuth Distance (km) Brightness Sun altitude
Rises 23:45:20 0° 280° (W) 4,903 12.0 -19.4°
Reaches altitude 10° 23:48:33 10° 277° (W) 3,898 11.4 -19.5°
Maximum altitude 23:58:19 65° 200° (SSW) 1,752 9.0 -19.9°
Enters shadow 00:07:28 11° 121° (ESE) 3,683 10.6 -20.2°
Drops below altitude 10° 00:07:45 10° 121° (ESE) 3,769 - -20.2°
Sets 00:10:48 0° 119° (ESE) 4,733 - -20.3°
